| time (UTC) | temp F | wind direction | speed MPH | gust MPH | rain 1hr in | rain 24hr in | rain mn in | humidity % | barometer mb |
| 20260502214026 | 50 | 250 | 0.0 | 0.0 | 0.00 | 0.00 | 0.00 | 80 | 1021.0 |
| 20260502213539 | 50 | 250 | 0.0 | 0.0 | 0.00 | 0.00 | 0.00 | 80 | 1021.0 |
| 20260502213031 | 51 | 250 | 0.0 | 0.0 | 0.00 | 0.00 | 0.00 | 80 | 1021.0 |
| 20260502212533 | 51 | 250 | 0.0 | 0.0 | 0.00 | 0.00 | 0.00 | 80 | 1020.9 |
| 20260502212031 | 51 | 250 | 0.0 | 0.0 | 0.00 | 0.00 | 0.00 | 79 | 1020.9 |
| 20260502211515 | 51 | 250 | 0.0 | 0.0 | 0.00 | 0.00 | 0.00 | 79 | 1021.0 |
| 20260502211014 | 51 | 250 | 0.0 | 0.0 | 0.00 | 0.00 | 0.00 | 79 | 1021.0 |
| 20260502210517 | 51 | 250 | 0.0 | 0.0 | 0.00 | 0.00 | 0.00 | 79 | 1020.9 |
| 20260502210027 | 52 | 250 | 0.0 | 0.0 | 0.00 | 0.00 | 0.00 | 78 | 1021.0 |
| 20260502205530 | 52 | 250 | 0.0 | 0.0 | 0.00 | 0.00 | 0.00 | 78 | 1021.0 |
| 20260502205015 | 52 | 250 | 0.0 | 0.0 | 0.00 | 0.00 | 0.00 | 78 | 1021.0 |
| 20260502204519 | 52 | 250 | 0.0 | 0.0 | 0.00 | 0.00 | 0.00 | 77 | 1021.0 |
| 20260502204040 | 52 | 250 | 0.0 | 0.0 | 0.00 | 0.00 | 0.00 | 77 | 1021.1 |
| 20260502203542 | 52 | 250 | 0.0 | 0.0 | 0.00 | 0.00 | 0.00 | 77 | 1021.0 |
| 20260502203032 | 53 | 250 | 0.0 | 1.0 | 0.00 | 0.00 | 0.00 | 76 | 1021.0 |
| 20260502202517 | 53 | 250 | 0.0 | 1.0 | 0.00 | 0.00 | 0.00 | 76 | 1021.0 |
| 20260502202017 | 53 | 250 | 0.0 | 1.0 | 0.00 | 0.00 | 0.00 | 76 | 1021.0 |
| 20260502201521 | 53 | 250 | 0.0 | 0.0 | 0.00 | 0.00 | 0.00 | 75 | 1021.0 |
| 20260502201040 | 54 | 250 | 0.0 | 1.0 | 0.00 | 0.00 | 0.00 | 75 | 1021.1 |
| 20260502200522 | 54 | 250 | 0.0 | 1.0 | 0.00 | 0.00 | 0.00 | 74 | 1021.0 |
| 20260502200017 | 54 | 250 | 0.0 | 1.0 | 0.00 | 0.00 | 0.00 | 74 | 1021.0 |
| 20260502195542 | 54 | 250 | 0.0 | 1.0 | 0.00 | 0.00 | 0.00 | 74 | 1021.0 |
| 20260502195019 | 54 | 250 | 0.0 | 1.0 | 0.00 | 0.00 | 0.00 | 74 | 1020.9 |
| 20260502194544 | 55 | 250 | 0.0 | 1.0 | 0.00 | 0.00 | 0.00 | 74 | 1020.9 |
| 20260502194021 | 55 | 250 | 0.0 | 0.0 | 0.00 | 0.00 | 0.00 | 73 | 1020.9 |
| 20260502193544 | 55 | 250 | 0.0 | 1.0 | 0.00 | 0.00 | 0.00 | 73 | 1020.8 |
| 20260502193014 | 56 | 250 | 0.0 | 1.0 | 0.00 | 0.00 | 0.00 | 72 | 1020.8 |
| 20260502192520 | 56 | 250 | 0.0 | 1.0 | 0.00 | 0.00 | 0.00 | 72 | 1020.7 |
| 20260502192021 | 56 | 250 | 0.0 | 0.0 | 0.00 | 0.00 | 0.00 | 72 | 1020.7 |
| 20260502191542 | 56 | 250 | 0.0 | 0.0 | 0.00 | 0.00 | 0.00 | 72 | 1020.7 |
| 20260502191021 | 56 | 250 | 0.0 | 2.0 | 0.00 | 0.00 | 0.00 | 71 | 1020.6 |
| 20260502190530 | 57 | 250 | 0.0 | 2.0 | 0.00 | 0.00 | 0.00 | 71 | 1020.6 |
| 20260502190043 | 57 | 250 | 0.0 | 3.0 | 0.00 | 0.00 | 0.00 | 71 | 1020.5 |
| 20260502185523 | 57 | 250 | 1.0 | 3.0 | 0.00 | 0.00 | 0.00 | 70 | 1020.5 |
| 20260502185023 | 58 | 250 | 2.0 | 4.0 | 0.00 | 0.00 | 0.00 | 70 | 1020.5 |
| 20260502184528 | 58 | 250 | 2.0 | 4.0 | 0.00 | 0.00 | 0.00 | 68 | 1020.4 |
| 20260502184025 | 58 | 250 | 3.0 | 4.0 | 0.00 | 0.00 | 0.00 | 68 | 1020.4 |
| 20260502183528 | 58 | 250 | 2.0 | 3.0 | 0.00 | 0.00 | 0.00 | 69 | 1020.3 |
| 20260502183020 | 59 | 250 | 1.0 | 3.0 | 0.00 | 0.00 | 0.00 | 68 | 1020.3 |
| 20260502182523 | 59 | 250 | 2.0 | 4.0 | 0.00 | 0.00 | 0.00 | 68 | 1020.2 |
| 20260502182020 | 60 | 250 | 3.0 | 4.0 | 0.00 | 0.00 | 0.00 | 67 | 1020.1 |
| 20260502181524 | 60 | 251 | 2.0 | 3.0 | 0.00 | 0.00 | 0.00 | 66 | 1020.1 |
| 20260502181026 | 60 | 252 | 1.0 | 3.0 | 0.00 | 0.00 | 0.00 | 67 | 1020.0 |
| 20260502180530 | 61 | 252 | 2.0 | 3.0 | 0.00 | 0.00 | 0.00 | 65 | 1019.9 |
| 20260502164029 | 69 | 236 | 1.0 | 5.0 | 0.00 | 0.00 | 0.00 | 47 | 1019.7 |
| 20260502163513 | 70 | 220 | 3.0 | 7.0 | 0.00 | 0.00 | 0.00 | 46 | 1019.7 |
| 20260502163026 | 70 | 220 | 2.0 | 7.0 | 0.00 | 0.00 | 0.00 | 45 | 1019.7 |
| 20260502162531 | 70 | 224 | 3.0 | 5.0 | 0.00 | 0.00 | 0.00 | 46 | 1019.7 |
| 20260502162050 | 71 | 226 | 3.0 | 5.0 | 0.00 | 0.00 | 0.00 | 48 | 1019.7 |
| 20260502161516 | 71 | 221 | 2.0 | 6.0 | 0.00 | 0.00 | 0.00 | 45 | 1019.6 |
| 20260502161036 | 72 | 230 | 2.0 | 6.0 | 0.00 | 0.00 | 0.00 | 45 | 1019.6 |
| 20260502160520 | 72 | 234 | 2.0 | 7.0 | 0.00 | 0.00 | 0.00 | 43 | 1019.7 |
| 20260502152011 | 75 | 219 | 4.0 | 7.0 | 0.00 | 0.00 | 0.00 | 38 | 1020.0 |
| 20260502151513 | 76 | 244 | 3.0 | 7.0 | 0.00 | 0.00 | 0.00 | 39 | 1020.0 |
| 20260502151033 | 76 | 216 | 4.0 | 10.0 | 0.00 | 0.00 | 0.00 | 37 | 1020.1 |
| 20260502150516 | 77 | 232 | 6.0 | 10.0 | 0.00 | 0.00 | 0.00 | 36 | 1020.1 |
| 20260502130513 | 77 | 186 | 4.0 | 13.0 | 0.00 | 0.00 | 0.00 | 33 | 1021.2 |
| 20260502123513 | 77 | 155 | 3.0 | 10.0 | 0.00 | 0.00 | 0.00 | 33 | 1021.5 |
| 20260502123046 | 77 | 202 | 4.0 | 9.0 | 0.00 | 0.00 | 0.00 | 33 | 1021.6 |
| 20260502122528 | 77 | 204 | 5.0 | 10.0 | 0.00 | 0.00 | 0.00 | 32 | 1021.7 |
| 20260502122028 | 77 | 182 | 4.0 | 9.0 | 0.00 | 0.00 | 0.00 | 33 | 1021.7 |
| 20260502121530 | 76 | 229 | 4.0 | 10.0 | 0.00 | 0.00 | 0.00 | 33 | 1021.8 |
| 20260502121029 | 77 | 179 | 5.0 | 10.0 | 0.00 | 0.00 | 0.00 | 33 | 1021.9 |
| 20260502120514 | 76 | 231 | 4.0 | 8.0 | 0.00 | 0.00 | 0.00 | 34 | 1021.9 |
| 20260502115530 | 76 | 194 | 4.0 | 10.0 | 0.00 | 0.00 | 0.00 | 33 | 1022.0 |
| 20260502115029 | 76 | 215 | 6.0 | 10.0 | 0.00 | 0.00 | 0.00 | 33 | 1022.0 |
| 20260502114513 | 76 | 167 | 3.0 | 8.0 | 0.00 | 0.00 | 0.00 | 32 | 1022.1 |
| 20260502114014 | 76 | 175 | 3.0 | 9.0 | 0.00 | 0.00 | 0.00 | 33 | 1022.2 |
| 20260502113515 | 76 | 227 | 3.0 | 9.0 | 0.00 | 0.00 | 0.00 | 33 | 1022.2 |
| 20260502113024 | 76 | 196 | 5.0 | 10.0 | 0.00 | 0.00 | 0.00 | 35 | 1022.3 |
| 20260502112528 | 76 | 225 | 4.0 | 10.0 | 0.00 | 0.00 | 0.00 | 33 | 1022.4 |
| 20260502112026 | 76 | 202 | 4.0 | 10.0 | 0.00 | 0.00 | 0.00 | 33 | 1022.4 |
| 20260502111527 | 76 | 184 | 4.0 | 10.0 | 0.00 | 0.00 | 0.00 | 34 | 1022.5 |
| 20260502111027 | 75 | 162 | 4.0 | 10.0 | 0.00 | 0.00 | 0.00 | 34 | 1022.6 |
| 20260502110551 | 75 | 207 | 4.0 | 9.0 | 0.00 | 0.00 | 0.00 | 34 | 1022.6 |
| 20260502110023 | 75 | 208 | 4.0 | 10.0 | 0.00 | 0.00 | 0.00 | 34 | 1022.7 |
| 20260502105548 | 75 | 219 | 6.0 | 10.0 | 0.00 | 0.00 | 0.00 | 34 | 1022.7 |
| 20260502105028 | 75 | 175 | 3.0 | 11.0 | 0.00 | 0.00 | 0.00 | 34 | 1022.8 |
| 20260502104531 | 75 | 182 | 5.0 | 11.0 | 0.00 | 0.00 | 0.00 | 35 | 1022.7 |
| 20260502104030 | 75 | 159 | 3.0 | 10.0 | 0.00 | 0.00 | 0.00 | 36 | 1022.8 |
| 20260502103536 | 74 | 213 | 4.0 | 10.0 | 0.00 | 0.00 | 0.00 | 37 | 1023.0 |
| 20260502103049 | 74 | 221 | 6.0 | 10.0 | 0.00 | 0.00 | 0.00 | 36 | 1023.1 |
| 20260502102514 | 74 | 182 | 4.0 | 8.0 | 0.00 | 0.00 | 0.00 | 35 | 1023.0 |
| 20260502102014 | 74 | 198 | 4.0 | 11.0 | 0.00 | 0.00 | 0.00 | 38 | 1023.1 |
| 20260502101518 | 74 | 209 | 6.0 | 12.0 | 0.00 | 0.00 | 0.00 | 37 | 1023.1 |
| 20260502101019 | 74 | 198 | 3.0 | 8.0 | 0.00 | 0.00 | 0.00 | 38 | 1023.2 |
| 20260502100523 | 75 | 186 | 2.0 | 8.0 | 0.00 | 0.00 | 0.00 | 37 | 1023.2 |
| 20260502091521 | 70 | 59 | 1.0 | 4.0 | 0.00 | 0.00 | 0.00 | 47 | 1023.9 |
| 20260502091020 | 70 | 58 | 3.0 | 4.0 | 0.00 | 0.00 | 0.00 | 47 | 1023.9 |
| 20260502090528 | 69 | 53 | 2.0 | 5.0 | 0.00 | 0.00 | 0.00 | 47 | 1024.0 |
| 20260502071513 | 59 | 48 | 3.0 | 5.0 | 0.00 | 0.00 | 0.00 | 61 | 1025.4 |
| 20260502071033 | 58 | 55 | 3.0 | 6.0 | 0.00 | 0.00 | 0.00 | 62 | 1025.5 |
| 20260502070515 | 58 | 55 | 4.0 | 6.0 | 0.00 | 0.00 | 0.00 | 62 | 1025.5 |
| 20260502070027 | 58 | 60 | 3.0 | 6.0 | 0.00 | 0.00 | 0.00 | 63 | 1025.6 |
| 20260502065530 | 57 | 74 | 3.0 | 7.0 | 0.00 | 0.00 | 0.00 | 65 | 1025.6 |
| 20260502065050 | 57 | 92 | 2.0 | 6.0 | 0.00 | 0.00 | 0.00 | 66 | 1025.6 |
| 20260502064531 | 57 | 97 | 2.0 | 6.0 | 0.00 | 0.00 | 0.00 | 66 | 1025.7 |
| 20260502064031 | 56 | 101 | 2.0 | 6.0 | 0.00 | 0.00 | 0.00 | 68 | 1025.8 |
| 20260502063532 | 55 | 113 | 2.0 | 7.0 | 0.00 | 0.00 | 0.00 | 68 | 1025.8 |
| 20260502063044 | 55 | 123 | 4.0 | 7.0 | 0.00 | 0.00 | 0.00 | 68 | 1025.9 |
| 20260502062527 | 54 | 175 | 3.0 | 4.0 | 0.00 | 0.00 | 0.00 | 69 | 1025.9 |
| 20260502062025 | 54 | 200 | 3.0 | 5.0 | 0.00 | 0.00 | 0.00 | 70 | 1026.0 |
| 20260502061548 | 54 | 212 | 2.0 | 5.0 | 0.00 | 0.00 | 0.00 | 71 | 1026.0 |
| 20260502061026 | 53 | 215 | 2.0 | 4.0 | 0.00 | 0.00 | 0.00 | 72 | 1026.0 |
| 20260502060529 | 53 | 217 | 2.0 | 5.0 | 0.00 | 0.00 | 0.00 | 72 | 1026.0 |
| 20260502060019 | 52 | 220 | 3.0 | 6.0 | 0.00 | 0.00 | 0.00 | 73 | 1026.1 |
| 20260502055523 | 52 | 223 | 3.0 | 6.0 | 0.00 | 0.00 | 0.00 | 73 | 1026.2 |
| 20260502055043 | 51 | 224 | 2.0 | 5.0 | 0.00 | 0.00 | 0.00 | 74 | 1026.2 |
| 20260502054525 | 51 | 225 | 3.0 | 5.0 | 0.00 | 0.00 | 0.00 | 75 | 1026.3 |
| 20260502054024 | 51 | 225 | 2.0 | 4.0 | 0.00 | 0.00 | 0.00 | 75 | 1026.3 |
| 20260502053526 | 50 | 225 | 3.0 | 5.0 | 0.00 | 0.00 | 0.00 | 76 | 1026.4 |
| 20260502053017 | 49 | 225 | 2.0 | 5.0 | 0.00 | 0.00 | 0.00 | 78 | 1026.4 |
| 20260502052524 | 49 | 225 | 3.0 | 4.0 | 0.00 | 0.00 | 0.00 | 80 | 1026.4 |
| 20260502052019 | 48 | 225 | 2.0 | 4.0 | 0.00 | 0.00 | 0.00 | 82 | 1026.4 |
| 20260502051522 | 47 | 226 | 1.0 | 3.0 | 0.00 | 0.00 | 0.00 | 84 | 1026.4 |
| 20260502051022 | 46 | 226 | 0.0 | 2.0 | 0.00 | 0.00 | 0.00 | 84 | 1026.5 |
| 20260502050522 | 46 | 226 | 1.0 | 3.0 | 0.00 | 0.00 | 0.00 | 85 | 1026.5 |
| 20260502050016 | 45 | 226 | 2.0 | 3.0 | 0.00 | 0.00 | 0.00 | 87 | 1026.5 |
| 20260502045519 | 45 | 226 | 1.0 | 3.0 | 0.00 | 0.00 | 0.00 | 89 | 1026.5 |
| 20260502045019 | 44 | 226 | 1.0 | 2.0 | 0.00 | 0.00 | 0.00 | 89 | 1026.5 |
| 20260502044522 | 43 | 226 | 0.0 | 0.0 | 0.00 | 0.00 | 0.00 | 88 | 1026.4 |
| 20260502044023 | 43 | 226 | 0.0 | 0.0 | 0.00 | 0.00 | 0.00 | 87 | 1026.5 |
| 20260502043546 | 43 | 226 | 0.0 | 0.0 | 0.00 | 0.00 | 0.00 | 87 | 1026.4 |
| 20260502043017 | 43 | 226 | 0.0 | 0.0 | 0.00 | 0.00 | 0.00 | 87 | 1026.4 |
| 20260502042519 | 43 | 226 | 0.0 | 1.0 | 0.00 | 0.00 | 0.00 | 87 | 1026.4 |
| 20260502042021 | 43 | 226 | 0.0 | 1.0 | 0.00 | 0.00 | 0.00 | 87 | 1026.4 |
| 20260502041549 | 43 | 226 | 0.0 | 0.0 | 0.00 | 0.00 | 0.00 | 86 | 1026.4 |
| 20260502041027 | 43 | 226 | 0.0 | 0.0 | 0.00 | 0.00 | 0.00 | 86 | 1026.5 |
| 20260502040516 | 43 | 226 | 0.0 | 0.0 | 0.00 | 0.00 | 0.00 | 86 | 1026.4 |
| 20260502040026 | 43 | 226 | 0.0 | 0.0 | 0.00 | 0.00 | 0.00 | 86 | 1026.4 |
| 20260502035530 | 43 | 226 | 0.0 | 0.0 | 0.00 | 0.00 | 0.00 | 86 | 1026.5 |
| 20260502035051 | 43 | 226 | 0.0 | 0.0 | 0.00 | 0.00 | 0.00 | 86 | 1026.4 |
| 20260502034512 | 43 | 226 | 0.0 | 0.0 | 0.00 | 0.00 | 0.00 | 86 | 1026.4 |
| 20260502034013 | 43 | 226 | 0.0 | 0.0 | 0.00 | 0.00 | 0.00 | 86 | 1026.4 |
| 20260502033537 | 43 | 226 | 0.0 | 0.0 | 0.00 | 0.00 | 0.00 | 86 | 1026.4 |
| 20260502033029 | 43 | 226 | 0.0 | 0.0 | 0.00 | 0.00 | 0.00 | 86 | 1026.4 |
| 20260502032531 | 43 | 226 | 0.0 | 1.0 | 0.00 | 0.00 | 0.00 | 85 | 1026.4 |
| 20260502032031 | 43 | 226 | 0.0 | 1.0 | 0.00 | 0.00 | 0.00 | 85 | 1026.4 |
| 20260502031513 | 43 | 226 | 0.0 | 1.0 | 0.00 | 0.00 | 0.00 | 85 | 1026.2 |
| 20260502031034 | 43 | 226 | 0.0 | 1.0 | 0.00 | 0.00 | 0.00 | 85 | 1026.3 |
| 20260502030516 | 43 | 226 | 0.0 | 0.0 | 0.00 | 0.00 | 0.00 | 85 | 1026.3 |
| 20260502030028 | 43 | 226 | 0.0 | 1.0 | 0.00 | 0.00 | 0.00 | 85 | 1026.4 |
| 20260502025531 | 43 | 226 | 0.0 | 1.0 | 0.00 | 0.00 | 0.00 | 85 | 1026.4 |
| 20260502025051 | 43 | 226 | 0.0 | 1.0 | 0.00 | 0.00 | 0.00 | 85 | 1026.5 |
| 20260502024514 | 43 | 226 | 0.0 | 1.0 | 0.00 | 0.00 | 0.00 | 85 | 1026.5 |
| 20260502024015 | 43 | 226 | 0.0 | 2.0 | 0.00 | 0.00 | 0.00 | 85 | 1026.5 |
| 20260502023523 | 43 | 226 | 0.0 | 2.0 | 0.00 | 0.00 | 0.00 | 85 | 1026.4 |
| 20260502023015 | 43 | 226 | 1.0 | 2.0 | 0.00 | 0.00 | 0.00 | 85 | 1026.5 |
| 20260502022539 | 43 | 226 | 0.0 | 3.0 | 0.00 | 0.00 | 0.00 | 85 | 1026.5 |
| 20260502022039 | 43 | 226 | 1.0 | 3.0 | 0.00 | 0.00 | 0.00 | 85 | 1026.5 |
| 20260502021520 | 43 | 226 | 0.0 | 3.0 | 0.00 | 0.00 | 0.00 | 85 | 1026.5 |
| 20260502021020 | 43 | 226 | 0.0 | 1.0 | 0.00 | 0.00 | 0.00 | 85 | 1026.5 |
| 20260502020523 | 43 | 226 | 0.0 | 1.0 | 0.00 | 0.00 | 0.00 | 85 | 1026.5 |
| 20260502020014 | 43 | 226 | 0.0 | 0.0 | 0.00 | 0.00 | 0.00 | 84 | 1026.5 |
| 20260502015540 | 43 | 226 | 0.0 | 0.0 | 0.00 | 0.00 | 0.00 | 84 | 1026.5 |
| 20260502015018 | 44 | 226 | 0.0 | 0.0 | 0.00 | 0.00 | 0.00 | 84 | 1026.5 |
| 20260502014522 | 44 | 226 | 0.0 | 0.0 | 0.00 | 0.00 | 0.00 | 84 | 1026.5 |
| 20260502014025 | 44 | 226 | 0.0 | 0.0 | 0.00 | 0.00 | 0.00 | 84 | 1026.5 |
| 20260502013548 | 44 | 226 | 0.0 | 0.0 | 0.00 | 0.00 | 0.00 | 83 | 1026.6 |
| 20260502013016 | 44 | 226 | 0.0 | 0.0 | 0.00 | 0.00 | 0.00 | 83 | 1026.6 |
| 20260502012519 | 44 | 226 | 0.0 | 2.0 | 0.00 | 0.00 | 0.00 | 83 | 1026.6 |
| 20260502012021 | 44 | 226 | 0.0 | 2.0 | 0.00 | 0.00 | 0.00 | 83 | 1026.6 |
| 20260502011522 | 44 | 226 | 0.0 | 0.0 | 0.00 | 0.00 | 0.00 | 82 | 1026.7 |
| 20260502011023 | 44 | 226 | 0.0 | 0.0 | 0.00 | 0.00 | 0.00 | 82 | 1026.7 |
| 20260502010529 | 45 | 226 | 0.0 | 0.0 | 0.00 | 0.00 | 0.00 | 82 | 1026.7 |
| 20260502010019 | 45 | 226 | 0.0 | 0.0 | 0.00 | 0.00 | 0.00 | 82 | 1026.7 |
| 20260502005521 | 45 | 226 | 0.0 | 1.0 | 0.00 | 0.00 | 0.00 | 82 | 1026.7 |
| 20260502005022 | 45 | 226 | 0.0 | 1.0 | 0.00 | 0.00 | 0.00 | 81 | 1026.7 |
| 20260502004526 | 45 | 226 | 0.0 | 4.0 | 0.00 | 0.00 | 0.00 | 81 | 1026.7 |
| 20260502004044 | 45 | 226 | 1.0 | 4.0 | 0.00 | 0.00 | 0.00 | 81 | 1026.7 |
| 20260502003526 | 45 | 226 | 2.0 | 3.0 | 0.00 | 0.00 | 0.00 | 81 | 1026.7 |
| 20260502003017 | 45 | 226 | 0.0 | 2.0 | 0.00 | 0.00 | 0.00 | 81 | 1026.7 |
| 20260502002518 | 45 | 226 | 1.0 | 4.0 | 0.00 | 0.00 | 0.00 | 80 | 1026.8 |
| 20260502002017 | 45 | 226 | 1.0 | 4.0 | 0.00 | 0.00 | 0.00 | 80 | 1026.8 |
| 20260502001518 | 45 | 226 | 1.0 | 4.0 | 0.00 | 0.00 | 0.00 | 80 | 1026.8 |
| 20260502001019 | 45 | 226 | 2.0 | 4.0 | 0.00 | 0.00 | 0.00 | 80 | 1026.8 |
| 20260502000523 | 46 | 225 | 2.0 | 4.0 | 0.00 | 0.00 | 0.00 | 80 | 1026.8 |
| 20260502000036 | 46 | 225 | 1.0 | 3.0 | 0.00 | 0.00 | 0.00 | 80 | 1026.8 |
| 20260501235540 | 46 | 225 | 1.0 | 3.0 | 0.00 | 0.00 | 0.00 | 80 | 1026.8 |
| 20260501235018 | 46 | 225 | 1.0 | 3.0 | 0.00 | 0.00 | 0.00 | 79 | 1026.9 |
| 20260501234523 | 46 | 225 | 0.0 | 4.0 | 0.00 | 0.00 | 0.00 | 79 | 1026.9 |
| 20260501234023 | 46 | 225 | 2.0 | 4.0 | 0.00 | 0.00 | 0.00 | 79 | 1026.8 |
| 20260501233546 | 46 | 225 | 0.0 | 2.0 | 0.00 | 0.00 | 0.00 | 78 | 1026.8 |
| 20260501233015 | 46 | 225 | 0.0 | 3.0 | 0.00 | 0.00 | 0.00 | 78 | 1026.8 |
| 20260501232520 | 46 | 225 | 1.0 | 3.0 | 0.00 | 0.00 | 0.00 | 79 | 1026.8 |
| 20260501232020 | 46 | 225 | 1.0 | 3.0 | 0.00 | 0.00 | 0.00 | 78 | 1026.8 |
| 20260501231523 | 47 | 225 | 1.0 | 2.0 | 0.00 | 0.00 | 0.00 | 78 | 1026.8 |
| 20260501231022 | 47 | 225 | 0.0 | 3.0 | 0.00 | 0.00 | 0.00 | 78 | 1026.7 |
| 20260501230525 | 47 | 225 | 2.0 | 3.0 | 0.00 | 0.00 | 0.00 | 78 | 1026.7 |
| 20260501230016 | 47 | 225 | 1.0 | 3.0 | 0.00 | 0.00 | 0.00 | 78 | 1026.8 |
| 20260501225520 | 47 | 225 | 0.0 | 3.0 | 0.00 | 0.00 | 0.00 | 78 | 1026.7 |
| 20260501225021 | 47 | 225 | 0.0 | 3.0 | 0.00 | 0.00 | 0.00 | 79 | 1026.7 |
| 20260501224544 | 47 | 225 | 2.0 | 3.0 | 0.00 | 0.00 | 0.00 | 79 | 1026.7 |
| 20260501224021 | 47 | 225 | 1.0 | 2.0 | 0.00 | 0.00 | 0.00 | 79 | 1026.7 |
| 20260501223521 | 47 | 225 | 0.0 | 2.0 | 0.00 | 0.00 | 0.00 | 78 | 1026.6 |
| 20260501223033 | 47 | 225 | 0.0 | 1.0 | 0.00 | 0.00 | 0.00 | 78 | 1026.6 |
| 20260501222514 | 47 | 225 | 0.0 | 3.0 | 0.00 | 0.00 | 0.00 | 78 | 1026.6 |
| 20260501222053 | 47 | 225 | 1.0 | 5.0 | 0.00 | 0.00 | 0.00 | 78 | 1026.6 |
| 20260501221515 | 47 | 225 | 3.0 | 5.0 | 0.00 | 0.00 | 0.00 | 78 | 1026.6 |
| 20260501221016 | 47 | 225 | 0.0 | 3.0 | 0.00 | 0.00 | 0.00 | 79 | 1026.5 |
| 20260501220519 | 47 | 225 | 1.0 | 1.0 | 0.00 | 0.00 | 0.00 | 79 | 1026.5 |
| 20260501220017 | 47 | 225 | 0.0 | 0.0 | 0.00 | 0.00 | 0.00 | 79 | 1026.5 |
| 20260501215520 | 47 | 225 | 0.0 | 1.0 | 0.00 | 0.00 | 0.00 | 78 | 1026.4 |
| 20260501215020 | 48 | 225 | 0.0 | 1.0 | 0.00 | 0.00 | 0.00 | 78 | 1026.4 |
| 20260501214524 | 48 | 225 | 0.0 | 0.0 | 0.00 | 0.00 | 0.00 | 78 | 1026.4 |